Location: Newark
(20.1200°S, 168.9600°E)
Time: 00:26:09
(UTC+00:00)

Hubble Space Telescope - Pass Details

Date: 27 November 2019
Orbit: 536 x 540 km, 28.5° (Epoch: 14 December)

Event Time Altitude Azimuth Distance (km) Brightness Sun altitude
Rises 17:23:37 0° 247° (WSW) 2,694 3.9 -7.6°
Reaches altitude 10° 17:26:10 10° 234° (SW) 1,802 3.2 -7.1°
Maximum altitude 17:29:41 26° 176° (S) 1,099 2.7 -6.3°
Drops below altitude 10° 17:33:12 10° 119° (ESE) 1,800 5.3 -5.6°
Sets 17:35:45 0° 106° (ESE) 2,690 6.7 -5.0°
